User: anonymous   Login
Location: Unspecified
(0.0000°N, 0.0000°E)
Time: 00:47:16
(UTC+00:00)
Language:

RESURS DK-1 - Orbit

View from above orbital plane
View from above orbital plane
View from above satellite
View from above satellite

Ground track
Ground track

The orbit data is extracted from the following two-line orbital elements,

1 29228U 06021A   17295.82421399  .00000149  00000-0  18650-4 0  9992
2 29228  69.9339 133.3288 0003904 187.8578 172.2523 15.02228272627268
Epoch (UTC): 22 October 2017 19:46:52
Eccentricity: 0.0003904
inclination: 69.9339°
perigee height: 557 km
apogee height: 563 km
right ascension of ascending node: 133.3288°
argument of perigee: 187.8578°
revolutions per day: 15.02228272
mean anomaly at epoch: 172.2523°
orbit number at epoch: 62726

The dashed part of the orbit path shows where the satellite is in the earth's shadow,  

DLR